Tracking 30922 objects as of 2-Jul-2025
HD Live streaming from Space Station
objects crossing your sky now

STARLINK-2161

Track STARLINK-2161 now!
10-day predictions
STARLINK-2161 is classified as:


NORAD ID: 47747
Int'l Code: 2021-017AB
Perigee: 553.9 km
Apogee: 554.9 km
Inclination: 53.1 °
Period: 95.6 minutes
Semi major axis: 6925 km
RCS: Unknown
Launch date: March 4, 2021
Source: United States (US)
Launch site: AIR FORCE EASTERN TEST RANGE (AFETR)
Your satellite tracking list
Your tracking list is empty




NASA's NSSDC Master Catalog

Two Line Element Set (TLE):
1 47747U 21017AB  25182.41281593  .00004413  00000-0  31497-3 0  9990
2 47747  53.0539 249.6470 0000704  73.4320 286.6746 15.06394667240022
Source of the keplerian elements: AFSPC